Location: Marcé
(47.5801°N, 0.3280°W)
Time: 21:41:52
(UTC+01:00)

Altair - Pass Details

Date: 15 December 2021
Orbit: 1501 x 1683 km, 47.2° (Epoch: 20 January)

Event Time Altitude Azimuth Distance (km) Brightness Sun altitude
Rises 17:53:03 0° 283° (WNW) 4,777 11.0 -7.0°
Reaches altitude 10° 17:56:11 10° 282° (WNW) 3,767 10.4 -7.5°
Maximum altitude 18:05:38 76° 199° (SSW) 1,573 7.7 -8.9°
Drops below altitude 10° 18:14:48 10° 116° (ESE) 3,655 9.1 -10.3°
Sets 18:17:48 0° 115° (ESE) 4,629 9.6 -10.8°
